sat.trackr.live / text

‹ back to catalog

UNKNOWN

NORAD 82820

UNKNOWN UNKNOWN UNKNOWN

§ Identity

Operator
Country
Launch date
Launch site
Launch vehicle
Mass (kg)
RCS (m²)

External: N2YO · Heavens-Above

§ Orbital elements

Epoch: 2026-09-17T07:48:51.012288Z

Period
100.24 min
Inclination
99.7919°
Eccentricity
0.0047380
Mean motion
14.36602012 rev/d
Perigee alt
735.9 km
Apogee alt
803.6 km
Semi-major
7,147.9 km
B*
5.7524e-4
RAAN
103.6657°
Arg perigee
301.6138°
Mean anomaly
58.0425°
Rev number
66,561

§ Raw data

UNKNOWN1 82820U          26260.32559042  .00001658  00000+0  57524-3 0  99912 82820  99.7919 103.6657 0047380 301.6138  58.0425 14.36602012665611

JSON: /api/v1/satellites/82820 · /tle

For live sub-satellite position, see the globe view (requires WebGL).

§ Visibility from observer

Set your observer location to see the next 7 days of passes ≥ 10°. The values pass through the URL so the page stays shareable.

No JS? Fill the form by hand. The geolocation button needs JavaScript.